Year,Month,Day,Hour,Minute,Value (Times are PST for temperature in C)
2010,06,18,00,00,10.20
2010,06,18,00,01,10.20
2010,06,18,00,02,10.20
2010,06,18,00,03,10.20
2010,06,18,00,04,10.20
2010,06,18,00,05,10.20
2010,06,18,00,06,10.20
2010,06,18,00,07,10.20
2010,06,18,00,08,10.20
2010,06,18,00,09,10.20
2010,06,18,00,10,10.20
2010,06,18,00,11,10.30
2010,06,18,00,12,10.30
2010,06,18,00,13,10.30
2010,06,18,00,14,10.30
2010,06,18,00,15,10.30
2010,06,18,00,16,10.30
2010,06,18,00,17,10.30
2010,06,18,00,18,10.40
2010,06,18,00,19,10.40
2010,06,18,00,20,10.40
2010,06,18,00,21,10.40
2010,06,18,00,22,10.40
2010,06,18,00,23,10.40
2010,06,18,00,24,10.40
2010,06,18,00,25,10.50
2010,06,18,00,26,10.50
2010,06,18,00,27,10.60
2010,06,18,00,28,10.60
2010,06,18,00,29,10.60
2010,06,18,00,30,10.60
2010,06,18,00,31,10.60
2010,06,18,00,32,10.60
2010,06,18,00,33,10.60
2010,06,18,00,34,10.60
2010,06,18,00,35,10.60
2010,06,18,00,36,10.60
2010,06,18,00,37,10.60
2010,06,18,00,38,10.60
2010,06,18,00,39,10.60
2010,06,18,00,40,10.60
2010,06,18,00,41,10.60
2010,06,18,00,42,10.60
2010,06,18,00,43,10.60
2010,06,18,00,44,10.60
2010,06,18,00,45,10.60
2010,06,18,00,46,10.60
2010,06,18,00,47,10.60
2010,06,18,00,48,10.60
2010,06,18,00,49,10.60
2010,06,18,00,50,10.60
2010,06,18,00,51,10.60
2010,06,18,00,52,10.60
2010,06,18,00,53,10.50
2010,06,18,00,54,10.50
2010,06,18,00,55,10.50
2010,06,18,00,56,10.50
2010,06,18,00,57,10.50
2010,06,18,00,58,10.50
2010,06,18,00,59,10.50
2010,06,18,01,00,10.40
2010,06,18,01,01,10.40
2010,06,18,01,02,10.40
2010,06,18,01,03,10.40
2010,06,18,01,04,10.40
2010,06,18,01,05,10.40
2010,06,18,01,06,10.40
2010,06,18,01,07,10.30
2010,06,18,01,08,10.30
2010,06,18,01,09,10.30
2010,06,18,01,10,10.30
2010,06,18,01,11,10.30
2010,06,18,01,12,10.30
2010,06,18,01,13,10.30
2010,06,18,01,14,10.30
2010,06,18,01,15,10.30
2010,06,18,01,16,10.20
2010,06,18,01,17,10.20
2010,06,18,01,18,10.20
2010,06,18,01,19,10.20
2010,06,18,01,20,10.20
2010,06,18,01,21,10.20
2010,06,18,01,22,10.20
2010,06,18,01,23,10.10
2010,06,18,01,24,10.10
2010,06,18,01,25,10.10
2010,06,18,01,26,10.10
2010,06,18,01,27,10.10
2010,06,18,01,28,10.10
2010,06,18,01,29,10.10
2010,06,18,01,30,10.10
2010,06,18,01,31,10.10
2010,06,18,01,32,10.10
2010,06,18,01,33,10.10
2010,06,18,01,34,10.10
2010,06,18,01,35,10.10
2010,06,18,01,36,10.10
2010,06,18,01,37,10.10
2010,06,18,01,38,10.10
2010,06,18,01,39,10.10
2010,06,18,01,40,10.10
2010,06,18,01,41,10.10
2010,06,18,01,42,10.10
2010,06,18,01,43,10.10
2010,06,18,01,44,10.10
2010,06,18,01,45,10.00
2010,06,18,01,46,10.00
2010,06,18,01,47,10.00
2010,06,18,01,48,10.00
2010,06,18,01,49,10.00
2010,06,18,01,50,10.00
2010,06,18,01,51,10.00
2010,06,18,01,52,10.00
2010,06,18,01,53,10.00
2010,06,18,01,54,10.00
2010,06,18,01,55,10.00
2010,06,18,01,56,9.90
2010,06,18,01,57,9.90
2010,06,18,01,58,9.90
2010,06,18,01,59,9.90
2010,06,18,02,00,9.90
2010,06,18,02,01,9.90
2010,06,18,02,02,9.90
2010,06,18,02,03,9.90
2010,06,18,02,04,9.90
2010,06,18,02,05,9.90
2010,06,18,02,06,9.80
2010,06,18,02,07,9.80
2010,06,18,02,08,9.80
2010,06,18,02,09,9.80
2010,06,18,02,10,9.80
2010,06,18,02,11,9.80
2010,06,18,02,12,9.80
2010,06,18,02,13,9.80
2010,06,18,02,14,9.70
2010,06,18,02,15,9.70
2010,06,18,02,16,9.70
2010,06,18,02,17,9.70
2010,06,18,02,18,9.70
2010,06,18,02,19,9.70
2010,06,18,02,20,9.70
2010,06,18,02,21,9.70
2010,06,18,02,22,9.70
2010,06,18,02,23,9.70
2010,06,18,02,24,9.70
2010,06,18,02,25,9.70
2010,06,18,02,26,9.70
2010,06,18,02,27,9.60
2010,06,18,02,28,9.60
2010,06,18,02,29,9.60
2010,06,18,02,30,9.60
2010,06,18,02,31,9.60
2010,06,18,02,32,9.60
2010,06,18,02,33,9.60
2010,06,18,02,34,9.60
2010,06,18,02,35,9.60
2010,06,18,02,36,9.60
2010,06,18,02,37,9.60
2010,06,18,02,38,9.60
2010,06,18,02,39,9.60
2010,06,18,02,40,9.60
2010,06,18,02,41,9.60
2010,06,18,02,42,9.60
2010,06,18,02,43,9.60
2010,06,18,02,44,9.60
2010,06,18,02,45,9.60
2010,06,18,02,46,9.60
2010,06,18,02,47,9.50
2010,06,18,02,48,9.50
2010,06,18,02,49,9.50
2010,06,18,02,50,9.40
2010,06,18,02,51,9.40
2010,06,18,02,52,9.40
2010,06,18,02,53,9.40
2010,06,18,02,54,9.40
2010,06,18,02,55,9.30
2010,06,18,02,56,9.30
2010,06,18,02,57,9.30
2010,06,18,02,58,9.30
2010,06,18,02,59,9.30
2010,06,18,03,00,9.20
2010,06,18,03,01,9.20
2010,06,18,03,02,9.20
2010,06,18,03,06,9.10
2010,06,18,03,07,9.10
2010,06,18,03,08,9.10
2010,06,18,03,09,9.10
2010,06,18,03,10,9.10
2010,06,18,03,11,9.10
2010,06,18,03,12,9.10
2010,06,18,03,13,9.00
2010,06,18,03,14,9.00
2010,06,18,03,15,9.00
2010,06,18,03,16,8.90
2010,06,18,03,17,8.90
2010,06,18,03,18,8.90
2010,06,18,03,19,8.90
2010,06,18,03,20,8.90
2010,06,18,03,21,8.90
2010,06,18,03,22,8.90
2010,06,18,03,23,8.90
2010,06,18,03,24,8.80
2010,06,18,03,25,8.80
2010,06,18,03,26,8.80
2010,06,18,03,27,8.80
2010,06,18,03,28,8.80
2010,06,18,03,29,8.80
2010,06,18,03,30,8.80
2010,06,18,03,31,8.80
2010,06,18,03,32,8.80
2010,06,18,03,33,8.80
2010,06,18,03,34,8.80
2010,06,18,03,35,8.80
2010,06,18,03,36,8.70
2010,06,18,03,37,8.70
2010,06,18,03,38,8.70
2010,06,18,03,39,8.70
2010,06,18,03,40,8.70
2010,06,18,03,41,8.70
2010,06,18,03,42,8.70
2010,06,18,03,43,8.70
2010,06,18,03,44,8.70
2010,06,18,03,45,8.70
2010,06,18,03,46,8.60
2010,06,18,03,47,8.60
2010,06,18,03,48,8.60
2010,06,18,03,49,8.60
2010,06,18,03,50,8.60
2010,06,18,03,51,8.60
2010,06,18,03,52,8.60
2010,06,18,03,53,8.60
2010,06,18,03,54,8.60
2010,06,18,03,55,8.60
2010,06,18,03,56,8.60
2010,06,18,03,57,8.60
2010,06,18,03,58,8.50
2010,06,18,03,59,8.50
2010,06,18,04,00,8.50
2010,06,18,04,01,8.50
2010,06,18,04,02,8.50
2010,06,18,04,03,8.50
2010,06,18,04,04,8.50
2010,06,18,04,05,8.50
2010,06,18,04,06,8.50
2010,06,18,04,07,8.50
2010,06,18,04,08,8.50
2010,06,18,04,09,8.40
2010,06,18,04,10,8.40
2010,06,18,04,11,8.40
2010,06,18,04,12,8.40
2010,06,18,04,13,8.40
2010,06,18,04,14,8.40
2010,06,18,04,15,8.40
2010,06,18,04,16,8.40
2010,06,18,04,17,8.40
2010,06,18,04,18,8.40
2010,06,18,04,19,8.40
2010,06,18,04,20,8.40
2010,06,18,04,21,8.40
2010,06,18,04,22,8.40
2010,06,18,04,23,8.40
2010,06,18,04,24,8.40
2010,06,18,04,25,8.30
2010,06,18,04,26,8.30
2010,06,18,04,27,8.30
2010,06,18,04,28,8.30
2010,06,18,04,29,8.30
2010,06,18,04,30,8.30
2010,06,18,04,31,8.30
2010,06,18,04,32,8.30
2010,06,18,04,33,8.30
2010,06,18,04,34,8.30
2010,06,18,04,35,8.30
2010,06,18,04,36,8.30
2010,06,18,04,37,8.30
2010,06,18,04,38,8.30
2010,06,18,04,39,8.30
2010,06,18,04,40,8.30
2010,06,18,04,41,8.30
2010,06,18,04,42,8.30
2010,06,18,04,43,8.40
2010,06,18,04,44,8.40
2010,06,18,04,45,8.40
2010,06,18,04,46,8.40
2010,06,18,04,47,8.40
2010,06,18,04,48,8.40
2010,06,18,04,49,8.40
2010,06,18,04,50,8.40
2010,06,18,04,51,8.40
2010,06,18,04,52,8.40
2010,06,18,04,53,8.40
2010,06,18,04,54,8.40
2010,06,18,04,55,8.40
2010,06,18,04,56,8.40
2010,06,18,04,57,8.40
2010,06,18,04,58,8.40
2010,06,18,04,59,8.40
2010,06,18,05,00,8.40
2010,06,18,05,01,8.40
2010,06,18,05,02,8.40
2010,06,18,05,03,8.50
2010,06,18,05,04,8.50
2010,06,18,05,05,8.40
2010,06,18,05,06,8.40
2010,06,18,05,07,8.40
2010,06,18,05,08,8.50
2010,06,18,05,09,8.40
2010,06,18,05,10,8.40
2010,06,18,05,11,8.50
2010,06,18,05,12,8.40
2010,06,18,05,13,8.40
2010,06,18,05,14,8.40
2010,06,18,05,15,8.40
2010,06,18,05,16,8.40
2010,06,18,05,17,8.40
2010,06,18,05,18,8.40
2010,06,18,05,19,8.40
2010,06,18,05,20,8.40
2010,06,18,05,21,8.40
2010,06,18,05,22,8.40
2010,06,18,05,23,8.40
2010,06,18,05,24,8.40
2010,06,18,05,25,8.40
2010,06,18,05,26,8.40
2010,06,18,05,27,8.40
2010,06,18,05,28,8.40
2010,06,18,05,29,8.40
2010,06,18,05,30,8.40
2010,06,18,05,31,8.40
2010,06,18,05,32,8.40
2010,06,18,05,33,8.40
2010,06,18,05,34,8.40
2010,06,18,05,35,8.40
2010,06,18,05,36,8.40
2010,06,18,05,37,8.40
2010,06,18,05,38,8.40
2010,06,18,05,39,8.40
2010,06,18,05,40,8.40
2010,06,18,05,41,8.40
2010,06,18,05,42,8.40
2010,06,18,05,43,8.40
2010,06,18,05,44,8.40
2010,06,18,05,45,8.40
2010,06,18,05,46,8.40
2010,06,18,05,47,8.40
2010,06,18,05,48,8.40
2010,06,18,05,49,8.40
2010,06,18,05,50,8.40
2010,06,18,05,51,8.40
2010,06,18,05,52,8.40
2010,06,18,05,53,8.40
2010,06,18,05,54,8.40
2010,06,18,05,55,8.40
2010,06,18,05,56,8.40
2010,06,18,05,57,8.40
2010,06,18,05,58,8.40
2010,06,18,05,59,8.40
2010,06,18,06,00,8.40
2010,06,18,06,01,8.40
2010,06,18,06,02,8.40
2010,06,18,06,03,8.40
2010,06,18,06,04,8.40
2010,06,18,06,05,8.50
2010,06,18,06,06,8.50
2010,06,18,06,07,8.50
2010,06,18,06,08,8.50
2010,06,18,06,09,8.50
2010,06,18,06,10,8.50
2010,06,18,06,11,8.50
2010,06,18,06,12,8.50
2010,06,18,06,13,8.50
2010,06,18,06,14,8.50
2010,06,18,06,15,8.60
2010,06,18,06,16,8.60
2010,06,18,06,17,8.60
2010,06,18,06,18,8.60
2010,06,18,06,19,8.60
2010,06,18,06,20,8.60
2010,06,18,06,21,8.60
2010,06,18,06,22,8.60
2010,06,18,06,23,8.60
2010,06,18,06,24,8.60
2010,06,18,06,25,8.70
2010,06,18,06,26,8.70
2010,06,18,06,27,8.70
2010,06,18,06,28,8.70
2010,06,18,06,29,8.70
2010,06,18,06,30,8.70
2010,06,18,06,31,8.70
2010,06,18,06,32,8.70
2010,06,18,06,33,8.70
2010,06,18,06,34,8.80
2010,06,18,06,35,8.80
2010,06,18,06,36,8.80
2010,06,18,06,37,8.80
2010,06,18,06,38,8.80
2010,06,18,06,39,8.80
2010,06,18,06,40,8.80
2010,06,18,06,41,8.80
2010,06,18,06,42,8.80
2010,06,18,06,43,8.80
2010,06,18,06,44,8.90
2010,06,18,06,45,8.90
2010,06,18,06,46,8.90
2010,06,18,06,47,8.90
2010,06,18,06,48,8.90
2010,06,18,06,49,8.90
2010,06,18,06,50,9.00
2010,06,18,06,51,9.00
2010,06,18,06,52,9.10
2010,06,18,06,53,9.10
2010,06,18,06,54,9.10
2010,06,18,06,55,9.10
2010,06,18,06,56,9.10
2010,06,18,06,57,9.10
2010,06,18,06,58,9.10
2010,06,18,06,59,9.20
2010,06,18,07,00,9.20
2010,06,18,07,01,9.20
2010,06,18,07,02,9.20
2010,06,18,07,03,9.20
2010,06,18,07,04,9.20
2010,06,18,07,05,9.20
2010,06,18,07,06,9.20
2010,06,18,07,07,9.30
2010,06,18,07,08,9.30
2010,06,18,07,09,9.30
2010,06,18,07,10,9.30
2010,06,18,07,11,9.30
2010,06,18,07,12,9.30
2010,06,18,07,13,9.40
2010,06,18,07,14,9.40
2010,06,18,07,15,9.40
2010,06,18,07,16,9.40
2010,06,18,07,17,9.50
2010,06,18,07,18,9.50
2010,06,18,07,19,9.50
2010,06,18,07,20,9.60
2010,06,18,07,21,9.60
2010,06,18,07,22,9.60
2010,06,18,07,23,9.60
2010,06,18,07,24,9.70
2010,06,18,07,25,9.70
2010,06,18,07,26,9.70
2010,06,18,07,27,9.70
2010,06,18,07,28,9.70
2010,06,18,07,29,9.80
2010,06,18,07,30,9.80
2010,06,18,07,31,9.80
2010,06,18,07,32,9.80
2010,06,18,07,33,9.80
2010,06,18,07,34,9.80
2010,06,18,07,35,9.80
2010,06,18,07,36,9.80
2010,06,18,07,37,9.80
2010,06,18,07,38,9.90
2010,06,18,07,39,9.90
2010,06,18,07,40,9.90
2010,06,18,07,41,9.90
2010,06,18,07,42,9.90
2010,06,18,07,43,10.00
2010,06,18,07,44,10.00
2010,06,18,07,45,10.00
2010,06,18,07,46,10.10
2010,06,18,07,47,10.10
2010,06,18,07,48,10.10
2010,06,18,07,49,10.10
2010,06,18,07,50,10.10
2010,06,18,07,51,10.10
2010,06,18,07,52,10.20
2010,06,18,07,53,10.20
2010,06,18,07,54,10.20
2010,06,18,07,55,10.20
2010,06,18,07,56,10.20
2010,06,18,07,57,10.30
2010,06,18,07,58,10.30
2010,06,18,07,59,10.30
2010,06,18,08,00,10.30
2010,06,18,08,01,10.40
2010,06,18,08,02,10.40
2010,06,18,08,03,10.50
2010,06,18,08,04,10.50
2010,06,18,08,05,10.60
2010,06,18,08,06,10.60
2010,06,18,08,07,10.60
2010,06,18,08,08,10.70
2010,06,18,08,09,10.70
2010,06,18,08,10,10.70
2010,06,18,08,11,10.70
2010,06,18,08,12,10.80
2010,06,18,08,13,10.80
2010,06,18,08,58,12.10
2010,06,18,08,59,12.20
2010,06,18,09,00,12.20
2010,06,18,09,01,12.20
2010,06,18,09,02,12.30
2010,06,18,09,03,12.30
2010,06,18,09,04,12.30
2010,06,18,09,05,12.40
2010,06,18,09,06,12.40
2010,06,18,09,07,12.50
2010,06,18,09,08,12.50
2010,06,18,09,09,12.60
2010,06,18,09,10,12.60
2010,06,18,09,11,12.60
2010,06,18,09,12,12.60
2010,06,18,09,13,12.60
2010,06,18,09,14,12.60
2010,06,18,09,15,12.70
2010,06,18,09,16,12.70
2010,06,18,09,17,12.70
2010,06,18,09,18,12.70
2010,06,18,09,19,12.80
2010,06,18,09,20,12.80
2010,06,18,09,21,12.80
2010,06,18,09,22,12.80
2010,06,18,09,23,12.90
2010,06,18,09,24,12.90
2010,06,18,09,25,12.90
2010,06,18,09,26,12.90
2010,06,18,09,27,12.90
2010,06,18,09,28,12.90
2010,06,18,09,29,12.90
2010,06,18,09,30,12.90
2010,06,18,09,31,12.90
2010,06,18,09,32,12.90
2010,06,18,09,33,12.90
2010,06,18,09,34,12.90
2010,06,18,09,35,12.90
2010,06,18,09,36,12.90
2010,06,18,09,37,12.90
2010,06,18,09,38,12.90
2010,06,18,09,39,12.90
2010,06,18,09,40,12.90
2010,06,18,09,41,12.90
2010,06,18,09,42,12.90
2010,06,18,09,43,12.90
2010,06,18,09,44,13.00
2010,06,18,09,45,13.00
2010,06,18,09,46,13.10
2010,06,18,09,47,13.10
2010,06,18,09,48,13.10
2010,06,18,09,49,13.10
2010,06,18,09,50,13.20
2010,06,18,09,51,13.20
2010,06,18,09,52,13.20
2010,06,18,09,53,13.20
2010,06,18,09,54,13.30
2010,06,18,09,55,13.30
2010,06,18,09,56,13.30
2010,06,18,09,57,13.40
2010,06,18,09,58,13.40
2010,06,18,09,59,13.50
2010,06,18,10,00,13.60
2010,06,18,10,01,13.60
2010,06,18,10,02,13.70
2010,06,18,10,03,13.80
2010,06,18,10,04,13.80
2010,06,18,10,05,13.90
2010,06,18,10,06,13.90
2010,06,18,10,07,13.90
2010,06,18,10,08,13.90
2010,06,18,10,09,13.90
2010,06,18,10,10,13.90
2010,06,18,10,11,13.90
2010,06,18,10,12,13.90
2010,06,18,10,13,14.00
2010,06,18,10,14,14.00
2010,06,18,10,15,14.10
2010,06,18,10,16,14.10
2010,06,18,10,17,14.20
2010,06,18,10,18,14.20
2010,06,18,10,19,14.30
2010,06,18,10,20,14.30
2010,06,18,10,21,14.30
2010,06,18,10,22,14.30
2010,06,18,10,23,14.30
2010,06,18,10,24,14.40
2010,06,18,10,25,14.40
2010,06,18,10,26,14.40
2010,06,18,10,27,14.40
2010,06,18,10,28,14.40
2010,06,18,10,29,14.40
2010,06,18,10,30,14.50
2010,06,18,10,31,14.50
2010,06,18,10,32,14.60
2010,06,18,10,33,14.60
2010,06,18,10,34,14.70
2010,06,18,10,35,14.70
2010,06,18,10,36,14.70
2010,06,18,10,37,14.80
2010,06,18,10,38,14.90
2010,06,18,10,39,15.00
2010,06,18,10,40,15.00
2010,06,18,10,41,15.00
2010,06,18,10,42,15.00
2010,06,18,10,43,15.00
2010,06,18,10,44,15.10
2010,06,18,10,45,15.20
2010,06,18,10,46,15.20
2010,06,18,10,47,15.30
2010,06,18,10,48,15.30
2010,06,18,10,49,15.40
2010,06,18,10,50,15.40
2010,06,18,10,51,15.50
2010,06,18,10,52,15.50
2010,06,18,10,53,15.60
2010,06,18,10,54,15.60
2010,06,18,10,55,15.70
2010,06,18,10,56,15.70
2010,06,18,10,57,15.70
2010,06,18,10,58,15.70
2010,06,18,10,59,15.70
2010,06,18,11,00,15.70
2010,06,18,11,01,15.70
2010,06,18,11,02,15.80
2010,06,18,11,03,15.80
2010,06,18,11,04,15.80
2010,06,18,11,05,15.80
2010,06,18,11,06,15.70
2010,06,18,11,07,15.70
2010,06,18,11,08,15.70
2010,06,18,11,09,15.60
2010,06,18,11,10,15.60
2010,06,18,11,11,15.60
2010,06,18,11,12,15.70
2010,06,18,11,13,15.70
2010,06,18,11,14,15.70
2010,06,18,11,15,15.70
2010,06,18,11,16,15.70
2010,06,18,11,17,15.70
2010,06,18,11,18,15.70
2010,06,18,11,19,15.80
2010,06,18,11,20,15.80
2010,06,18,11,21,15.80
2010,06,18,11,22,15.80
2010,06,18,11,23,15.90
2010,06,18,11,24,16.00
2010,06,18,11,25,16.10
2010,06,18,11,26,16.30
2010,06,18,11,27,16.40
2010,06,18,11,28,16.40
2010,06,18,11,29,16.40
2010,06,18,11,30,16.40
2010,06,18,11,31,16.50
2010,06,18,11,32,16.60
2010,06,18,11,33,16.60
2010,06,18,11,34,16.70
2010,06,18,11,35,16.70
2010,06,18,11,36,16.70
2010,06,18,11,37,16.80
2010,06,18,11,38,16.80
2010,06,18,11,39,16.80
2010,06,18,11,40,16.80
2010,06,18,11,41,16.70
2010,06,18,11,42,16.70
2010,06,18,11,43,16.60
2010,06,18,11,44,16.60
2010,06,18,11,45,16.70
2010,06,18,11,46,16.80
2010,06,18,11,47,16.80
2010,06,18,11,48,16.90
2010,06,18,11,49,16.90
2010,06,18,11,50,16.90
2010,06,18,11,51,17.00
2010,06,18,11,52,17.00
2010,06,18,11,53,17.00
2010,06,18,11,54,16.90
2010,06,18,11,55,16.90
2010,06,18,11,56,16.80
2010,06,18,11,57,16.70
2010,06,18,11,58,16.70
2010,06,18,11,59,16.60
2010,06,18,12,00,16.60
2010,06,18,12,01,16.60
2010,06,18,12,02,16.60
2010,06,18,12,03,16.60
2010,06,18,12,04,16.60
2010,06,18,12,05,16.50
2010,06,18,12,06,16.40
2010,06,18,12,07,16.50
2010,06,18,12,08,16.50
2010,06,18,12,09,16.50
2010,06,18,12,10,16.50
2010,06,18,12,11,16.50
2010,06,18,12,12,16.50
2010,06,18,12,13,16.50
2010,06,18,12,14,16.50
2010,06,18,12,15,16.50
2010,06,18,12,16,16.50
2010,06,18,12,17,16.60
2010,06,18,12,18,16.60
2010,06,18,12,19,16.60
2010,06,18,12,20,16.70
2010,06,18,12,21,16.70
2010,06,18,12,22,16.80
2010,06,18,12,23,16.80
2010,06,18,12,24,16.90
2010,06,18,12,25,16.90
2010,06,18,12,26,17.00
2010,06,18,12,27,17.10
2010,06,18,12,28,17.30
2010,06,18,12,29,17.40
2010,06,18,12,30,17.60
2010,06,18,12,31,17.60
2010,06,18,12,32,17.60
2010,06,18,12,33,17.70
2010,06,18,12,34,17.70
2010,06,18,12,35,17.70
2010,06,18,12,36,17.60
2010,06,18,12,37,17.60
2010,06,18,12,38,17.50
2010,06,18,12,39,17.50
2010,06,18,12,40,17.50
2010,06,18,12,41,17.50
2010,06,18,12,42,17.50
2010,06,18,12,43,17.50
2010,06,18,12,44,17.60
2010,06,18,12,45,17.60
2010,06,18,12,46,17.60
2010,06,18,12,47,17.60
2010,06,18,12,48,17.60
2010,06,18,12,49,17.50
2010,06,18,12,50,17.50
2010,06,18,12,51,17.60
2010,06,18,12,52,17.60
2010,06,18,12,53,17.60
2010,06,18,12,54,17.60
2010,06,18,12,55,17.60
2010,06,18,12,56,17.60
2010,06,18,12,57,17.70
2010,06,18,12,58,17.70
2010,06,18,12,59,17.80
2010,06,18,13,00,17.80
2010,06,18,13,01,17.80
2010,06,18,13,02,17.70
2010,06,18,13,03,17.60
2010,06,18,13,04,17.40
2010,06,18,13,05,17.40
2010,06,18,13,06,17.30
2010,06,18,13,07,17.30
2010,06,18,13,08,17.30
2010,06,18,13,09,17.30
2010,06,18,13,10,17.40
2010,06,18,13,11,17.40
2010,06,18,13,12,17.40
2010,06,18,13,13,17.40
2010,06,18,13,14,17.50
2010,06,18,13,15,17.50
2010,06,18,13,16,17.50
2010,06,18,13,17,17.40
2010,06,18,13,18,17.40
2010,06,18,13,19,17.40
2010,06,18,13,20,17.30
2010,06,18,13,21,17.20
2010,06,18,13,22,17.30
2010,06,18,13,23,17.30
2010,06,18,13,24,17.30
2010,06,18,13,25,17.30
2010,06,18,13,26,17.30
2010,06,18,13,27,17.30
2010,06,18,13,28,17.30
2010,06,18,13,29,17.30
2010,06,18,13,30,17.40
2010,06,18,13,31,17.40
2010,06,18,13,32,17.50
2010,06,18,13,33,17.50
2010,06,18,13,34,17.60
2010,06,18,13,35,17.60
2010,06,18,13,36,17.60
2010,06,18,13,37,17.70
2010,06,18,13,38,17.70
2010,06,18,13,39,17.80
2010,06,18,13,40,17.80
2010,06,18,13,41,17.90
2010,06,18,13,42,17.90
2010,06,18,13,43,18.00
2010,06,18,13,44,18.00
2010,06,18,13,45,18.00
2010,06,18,13,46,18.10
2010,06,18,13,47,18.10
2010,06,18,13,48,18.10
2010,06,18,13,49,18.10
2010,06,18,13,50,18.10
2010,06,18,13,51,18.20
2010,06,18,13,52,18.20
2010,06,18,13,53,18.20
2010,06,18,13,54,18.20
2010,06,18,13,55,18.20
2010,06,18,13,56,18.20
2010,06,18,13,57,18.10
2010,06,18,13,58,18.20
2010,06,18,13,59,18.20
2010,06,18,14,00,18.20
2010,06,18,14,01,18.20
2010,06,18,14,02,18.20
2010,06,18,14,03,18.20
2010,06,18,14,04,18.20
2010,06,18,14,05,18.20
2010,06,18,14,06,18.20
2010,06,18,14,07,18.10
2010,06,18,14,08,18.10
2010,06,18,14,09,18.10
2010,06,18,14,10,18.10
2010,06,18,14,11,18.10
2010,06,18,14,12,18.20
2010,06,18,14,13,18.20
2010,06,18,14,14,18.20
2010,06,18,14,15,18.10
2010,06,18,14,16,18.10
2010,06,18,14,17,18.10
2010,06,18,14,18,18.10
2010,06,18,14,19,18.20
2010,06,18,14,20,18.30
2010,06,18,14,21,18.30
2010,06,18,14,22,18.30
2010,06,18,14,23,18.30
2010,06,18,14,24,18.30
2010,06,18,14,25,18.30
2010,06,18,14,26,18.30
2010,06,18,14,27,18.20
2010,06,18,14,28,18.20
2010,06,18,14,29,18.20
2010,06,18,14,30,18.10
2010,06,18,14,31,18.10
2010,06,18,14,32,18.10
2010,06,18,14,33,18.10
2010,06,18,14,34,18.10
2010,06,18,14,35,18.10
2010,06,18,14,36,18.20
2010,06,18,14,37,18.20
2010,06,18,14,38,18.30
2010,06,18,14,39,18.30
2010,06,18,14,40,18.30
2010,06,18,14,41,18.30
2010,06,18,14,42,18.30
2010,06,18,14,43,18.40
2010,06,18,14,44,18.50
2010,06,18,14,45,18.60
2010,06,18,14,46,18.70
2010,06,18,14,47,18.80
2010,06,18,14,48,18.90
2010,06,18,14,49,18.90
2010,06,18,14,50,18.90
2010,06,18,14,51,18.90
2010,06,18,14,52,19.00
2010,06,18,14,53,19.00
2010,06,18,14,54,19.10
2010,06,18,14,55,19.10
2010,06,18,14,56,19.10
2010,06,18,14,57,19.10
2010,06,18,14,58,19.00
2010,06,18,14,59,19.00
2010,06,18,15,00,18.90
2010,06,18,15,01,18.90
2010,06,18,15,02,18.80
2010,06,18,15,03,18.80
2010,06,18,15,04,18.80
2010,06,18,15,05,18.80
2010,06,18,15,06,18.80
2010,06,18,15,07,18.80
2010,06,18,15,08,18.80
2010,06,18,15,09,18.70
2010,06,18,15,10,18.70
2010,06,18,15,11,18.60
2010,06,18,15,12,18.60
2010,06,18,15,13,18.60
2010,06,18,15,14,18.60
2010,06,18,15,15,18.60
2010,06,18,15,16,18.50
2010,06,18,15,17,18.60
2010,06,18,15,18,18.60
2010,06,18,15,19,18.60
2010,06,18,15,20,18.60
2010,06,18,15,21,18.70
2010,06,18,15,22,18.70
2010,06,18,15,23,18.80
2010,06,18,15,24,18.80
2010,06,18,15,25,18.80
2010,06,18,15,26,18.80
2010,06,18,15,27,18.80
2010,06,18,15,28,18.80
2010,06,18,15,29,18.80
2010,06,18,15,30,18.90
2010,06,18,15,31,18.90
2010,06,18,15,32,18.90
2010,06,18,15,33,18.90
2010,06,18,15,34,18.90
2010,06,18,15,35,19.00
2010,06,18,15,36,19.00
2010,06,18,15,37,19.00
2010,06,18,15,38,19.10
2010,06,18,15,39,19.20
2010,06,18,15,40,19.20
2010,06,18,15,41,19.20
2010,06,18,15,42,19.30
2010,06,18,15,43,19.40
2010,06,18,15,44,19.50
2010,06,18,15,45,19.60
2010,06,18,15,46,19.60
2010,06,18,15,47,19.50
2010,06,18,15,48,19.50
2010,06,18,15,49,19.40
2010,06,18,15,50,19.30
2010,06,18,15,51,19.20
2010,06,18,15,52,19.10
2010,06,18,15,53,19.10
2010,06,18,15,54,19.10
2010,06,18,15,55,19.10
2010,06,18,15,56,19.10
2010,06,18,15,57,19.20
2010,06,18,15,58,19.20
2010,06,18,15,59,19.30
2010,06,18,16,00,19.40
2010,06,18,16,01,19.50
2010,06,18,16,02,19.50
2010,06,18,16,03,19.50
2010,06,18,16,04,19.50
2010,06,18,16,05,19.40
2010,06,18,16,06,19.40
2010,06,18,16,07,19.40
2010,06,18,16,08,19.40
2010,06,18,16,09,19.40
2010,06,18,16,10,19.40
2010,06,18,16,11,19.50
2010,06,18,16,12,19.50
2010,06,18,16,13,19.60
2010,06,18,16,14,19.70
2010,06,18,16,15,19.80
2010,06,18,16,16,19.90
2010,06,18,16,17,19.90
2010,06,18,16,18,19.90
2010,06,18,16,19,19.90
2010,06,18,16,20,19.90
2010,06,18,16,21,19.90
2010,06,18,16,22,19.80
2010,06,18,16,23,19.80
2010,06,18,16,24,19.80
2010,06,18,16,25,19.80
2010,06,18,16,26,19.80
2010,06,18,16,27,19.80
2010,06,18,16,28,19.80
2010,06,18,16,29,19.80
2010,06,18,16,30,19.90
2010,06,18,16,31,19.90
2010,06,18,16,32,20.00
2010,06,18,16,33,20.00
2010,06,18,16,34,19.90
2010,06,18,16,35,19.90
2010,06,18,16,36,19.90
2010,06,18,16,37,19.80
2010,06,18,16,38,19.80
2010,06,18,16,39,19.70
2010,06,18,16,40,19.70
2010,06,18,16,41,19.70
2010,06,18,16,42,19.70
2010,06,18,16,43,19.70
2010,06,18,16,44,19.70
2010,06,18,16,45,19.70
2010,06,18,16,46,19.70
2010,06,18,16,47,19.70
2010,06,18,16,48,19.70
2010,06,18,16,49,19.70
2010,06,18,16,50,19.70
2010,06,18,16,51,19.80
2010,06,18,16,52,19.80
2010,06,18,16,53,19.80
2010,06,18,16,54,19.80
2010,06,18,16,55,19.80
2010,06,18,16,56,19.80
2010,06,18,16,57,19.80
2010,06,18,16,58,19.80
2010,06,18,16,59,19.90
2010,06,18,17,00,20.00
2010,06,18,17,01,20.10
2010,06,18,17,02,20.20
2010,06,18,17,03,20.20
2010,06,18,17,04,20.30
2010,06,18,17,05,20.30
2010,06,18,17,06,20.30
2010,06,18,17,07,20.40
2010,06,18,17,08,20.50
2010,06,18,17,09,20.50
2010,06,18,17,10,20.40
2010,06,18,17,11,20.40
2010,06,18,17,12,20.40
2010,06,18,17,13,20.30
2010,06,18,17,14,20.30
2010,06,18,17,15,20.20
2010,06,18,17,16,20.10
2010,06,18,17,17,20.10
2010,06,18,17,18,20.10
2010,06,18,17,19,20.00
2010,06,18,17,20,19.90
2010,06,18,17,21,19.90
2010,06,18,17,22,19.80
2010,06,18,17,23,19.70
2010,06,18,17,24,19.70
2010,06,18,17,25,19.70
2010,06,18,17,26,19.70
2010,06,18,17,27,19.70
2010,06,18,17,28,19.70
2010,06,18,17,29,19.70
2010,06,18,17,30,19.80
2010,06,18,17,31,19.80
2010,06,18,17,32,19.90
2010,06,18,17,33,19.90
2010,06,18,17,34,19.80
2010,06,18,17,35,19.80
2010,06,18,17,36,19.80
2010,06,18,17,37,19.80
2010,06,18,17,38,19.90
2010,06,18,17,39,19.90
2010,06,18,17,40,20.00
2010,06,18,17,41,20.10
2010,06,18,17,42,20.10
2010,06,18,17,43,20.20
2010,06,18,17,44,20.20
2010,06,18,17,45,20.30
2010,06,18,17,46,20.30
2010,06,18,17,47,20.30
2010,06,18,17,48,20.30
2010,06,18,17,49,20.30
2010,06,18,17,50,20.30
2010,06,18,17,51,20.30
2010,06,18,17,52,20.30
2010,06,18,17,53,20.30
2010,06,18,17,54,20.20
2010,06,18,17,55,20.10
2010,06,18,17,56,20.00
2010,06,18,17,57,20.00
2010,06,18,17,58,19.90
2010,06,18,17,59,20.00
2010,06,18,18,00,19.90
2010,06,18,18,01,19.90
2010,06,18,18,02,19.90
2010,06,18,18,03,19.90
2010,06,18,18,04,20.00
2010,06,18,18,05,20.00
2010,06,18,18,06,20.00
2010,06,18,18,07,20.00
2010,06,18,18,08,20.00
2010,06,18,18,09,20.00
2010,06,18,18,10,20.10
2010,06,18,18,11,20.10
2010,06,18,18,12,20.10
2010,06,18,18,13,20.10
2010,06,18,18,14,20.10
2010,06,18,18,15,20.00
2010,06,18,18,16,20.00
2010,06,18,18,17,20.00
2010,06,18,18,18,20.00
2010,06,18,18,19,20.00
2010,06,18,18,20,20.00
2010,06,18,18,21,20.10